Tatalina Lrrs Airport
PATL : now visible

Airfield :











YOU CAN JOIN US ON...

 
LOGIN :

Register | Disclaimer

   EN    FR    IT 

 









Legend :    VFR   Marginal VFR   IFR   Intensive IFR   Very Intensive IFR
Visi :
Ceiling :
>= 8 km
>= 3000ft
5 to 8 km
1000 to 3000 ft
1500m to 5 km
500 to 1000 ft
800 to 1500m
200 to 500 ft
< 800m
< 200 ft
Symbols :   Thunderstorms  Fog  Heavy snow  Heavy precipitations  Wind > 20 kt






- Airport Elevation : 964 ft
- IATA code : TLJ


PATL - Tatalina Lrrs

CURRENT METAR :
  • 010655Z AUTO 04009KT 010V080 10SM -RA OVC003 14/13 A2998 RMK AO2 RAB0455 SLP149 P0002 T01370130

EXPIRED METARs :
  • 010555Z AUTO 03008KT 10SM -RA OVC004 14/13 A2997 RMK AO2 RAB0455 SLP147 P0002 60009 T01370130 10144 20137 52006
  • 010455Z AUTO 03008KT 010V080 10SM -RA OVC004 14/13 A2996 RMK AO2 RAB0255 SLP145 P0002 T01380131

Expired Forecast.
PAZA FIR / North America



MET'MAP, your aeronautical weather chart ! - Copyright ORBIFLY December 2007 - Disclaimer

ORBIFLY MET'MAP TEAM :

Programming & Development : Alexandra Zaïnal
Concept & original design : Baudouin d'Aumeries
Assistance for programming : Marc-Olivier Méhu
Technical & hardware support : Manuel Goepfert

Contact : metmap@orbifly.com




SOURCES & CREDITS :

   NOAA       Earth
Advisory